Regional Weather Roundup
Issued by NWS

Home | Current Version | Previous Version | Graphics & Text | Print | Product List | Glossary Off
Versions: 1 2 3 4 5 6 7 8 9 10 11 12 13 14 15 16 17 18 19 20 21 22 23 24 25 26 27 28 29 30 31 32 33 34 35 36 37 38 39 40 41 42 43 44 45 46 47 48 49 50

000
ASUS43 KTOP 281359
RWRKS

WEATHER ROUNDUP FOR KANSAS
NATIONAL WEATHER SERVICE GOODLAND KS
800 AM CST SAT FEB 28 2015

NOTE:  "FAIR" INDICATES FEW OR NO CLOUDS BELOW 12,000 FEET WITH NO
SIGNIFICANT WEATHER AND/OR OBSTRUCTIONS TO VISIBILITY.

KSZ001>006-013>018-027>032-041>047-281500-
NORTHWEST KANSAS

CITY           SKY/WX    TMP DP  RH WIND       PRES   REMARKS
GOODLAND       CLOUDY     9   6  88 SE7       30.09S FOG
HAYS           CLOUDY    14   3  62 S9        30.31R
HILL CITY      LGT SNOW  14  10  84 SE8       30.28S FOG
RUSSELL        LGT SNOW  15  12  88 S10       30.33R VSB 3/4 WCI   2
$$

KSZ061>065-074>080-084>089-281500-
SOUTHWEST KANSAS

CITY           SKY/WX    TMP DP  RH WIND       PRES   REMARKS
DODGE CITY     LGT SNOW  12   7  80 SE15      30.25S WCI  -4
ELKHART          N/A     11   3  70 SE15        N/A  WCI  -5
GARDEN CITY    CLOUDY    10   7  87 SE15      30.18S WCI  -7
GREAT BEND     CLOUDY    14   7  73 SE10      30.34S WCI   1
LIBERAL        CLOUDY    14   9  79 SE10      30.19F WCI   1
$$

KSZ066>073-081>083-090>101-281500-
SOUTHEAST KANSAS

CITY           SKY/WX    TMP DP  RH WIND       PRES   REMARKS
CHANUTE        LGT SNOW  20  16  84 SE6       30.47R VSB 1
COFFEYVILLE    LGT SNOW  20  16  84 SE7       30.49R VSB 3/4
HUTCHINSON     LGT SNOW  16  11  80 SE9       30.39F VSB 3/4
MEDICINE LODGE   N/A     14  12  92 SE5       30.37S
NEWTON         CLOUDY    16   9  73 SE7       30.41F
PARSONS        LGT SNOW  21  17  84 SE5       30.49R FOG
WICHITA INTL   SNOW      17  13  84 SE6       30.41F VSB 1/2
WICHITA JABRA  SNOW      16  14  92 SE6       30.41F VSB 1/2
WICHITA MCCONL LGT SNOW  18  14  86 SE6       30.41F VSB 3/4
WINFIELD       HVY SNOW  18  16  92 E3        30.44S VSB 1/4
$$

KSZ007>012-019>026-033>040-048>060-102>105-281500-
NORTHEAST KANSAS

CITY           SKY/WX    TMP DP  RH WIND       PRES   REMARKS
CONCORDIA      LGT SNOW  14  11  87 SE8       30.40R VSB 1
EMPORIA        SNOW      17  13  84 SE6       30.46R VSB 1/2
LAWRENCE       CLOUDY    18  10  71 E7        30.50S
MANHATTAN      SNOW      17  14  88 SE5       30.46R VSB 1/2
OLATHE IND     CLOUDY    18   9  68 E8        30.49S
OLATHE EXE     FLURRIES  18   9  68 E8        30.48S
SALINA         SNOW      17  13  84 SE7       30.43R VSB 1/2
TOPEKA BILLARD FLURRIES  18   9  68 E8        30.49S
TOPEKA FORBES  LGT SNOW  19  10  68 SE8       30.46S
$$


USA.gov is the U.S. government's official web portal to all federal, state and local government web resources and services.